Weather in Kulikovo

Russia / Ivanovo Oblast     56°59′45″N   41°12′34″E
temp.,
°C
wind,
m/s
gust,
m/s
humid.,
%
clouds,
%
prec.,
mm/h
press.,
hPa
HPBL,
m
20 january, wed
wed2000:00−15w239695 0.2 101547
03:00−15wnw249697 0.3 101589
06:00−13w239690 0.1 101469
09:00−14w339686 0.1 101559
12:00−11w369592 0.1 1015275
15:00−10w479596 0.1 1015332
18:00−13w3697100 0.0 1017102
21:00−15w369791 0.1 1017109
21 january, thu
thu2100:00−14w359790 0.0 1018134
03:00−14w379687 0.1 1018170
06:00−14wsw379598 0.0 1018173
09:00−15sw379499 0.0 1017142
12:00−12ssw4890100 0.0 1016272
15:00−11ssw3695100 0.1 1014310
18:00−12ssw2596100 0.8 1014260
21:00−14ssw2296100 0.8 101420
22 january, fri
fri2200:00−16sw1197100 0.0 101420
03:00−16se1196100 0.0 101520
06:00−15se239699 0.0 101533
09:00−13se3596100 0.0 1016159
12:00−11se479599 0.1 1015264
15:00−9se589599 0.3 1015314
18:00−8se5895100 0.4 1014310
21:00−7sse5995100 0.7 1013271
23 january, sat
sat2300:00−5sse4796100 1.1 1012238
03:000s5998100 1.6 1011422
06:000ssw3899100 0.9 1009341
09:00+1sw4999100 1.3 1009331
12:00+1sw611100100 0.8 1009410
15:00+1sw51199100 1.1 1009493
18:00+1ssw51198100 0.1 1009445
21:00+1sw3999100 0.2 1010365
24 january, sun
sun2400:00+1sw3899100 0.2 1010250
03:00+1ssw3799100 0.4 1011212
06:00+1ssw2699100 0.1 1011187
09:00+1s3799100 0.1 1012213
12:00+1s37100100 0.1 1012212
15:00+1s3899100 0.1 1012307
18:00+1s4998100 0.0 1012347
21:00+1sse61298100 0.1 1012400